EW7639 Hope Valley RI US current weather conditions

sailwx.info

Wind from 066

Air temperature 11.7° C
Dewpoint 10.7° C

Last reported at 2019-Aug-26 09:00 UTC.
Time now 2019-Aug-26 09:37 UTC

Location: N 41°31' W 071°42'.
View on Google Maps.

See reports from other nearby stations

  
Tides and Currents Weather Stations Pressure Air Temp Water Temp Dewpoint Dewpoint Depression Visibility Wind Speed Wind Dir Waves Ship Positions
date/time (UTC)wind fromknots sea level pressurealtimeterstation pressurevisibilityair tempwater tempwave heightnotes
2019-Aug-26 09:00 066 11.7
2019-Aug-26 08:45 066 11.7
2019-Aug-26 08:30 065 12.2
2019-Aug-26 08:15 254 12.2
2019-Aug-26 08:00 046 0 gusting 3 12.2
2019-Aug-26 07:45 317 12.2
2019-Aug-26 07:30 011 12.8
2019-Aug-26 07:15 350 12.8
2019-Aug-26 07:00 348 13.3
2019-Aug-26 06:45 355 13.3
2019-Aug-26 06:30 350 0 gusting 4 13.9
2019-Aug-26 06:16 019 13.9
2019-Aug-26 06:02 336 14.4
2019-Aug-26 05:46 355 1 gusting 3 14.4
2019-Aug-26 05:31 355 1 gusting 5 14.4
2019-Aug-26 05:16 335 1 gusting 4 14.4
2019-Aug-26 05:01 360 15.0
2019-Aug-26 04:46 054 15.0
2019-Aug-26 04:31 069 15.0
2019-Aug-26 04:17 342 0 gusting 2 14.4
2019-Aug-26 04:01 301 0 gusting 2 14.4
2019-Aug-26 03:46 010 14.4
2019-Aug-26 03:31 012 14.4
2019-Aug-26 03:16 019 0 gusting 2 14.4
2019-Aug-26 03:01 046 13.9
2019-Aug-26 02:46 034 13.9
2019-Aug-26 02:31 044 0 gusting 2 13.9
2019-Aug-26 02:15 051 0 gusting 3 13.9
2019-Aug-26 02:01 016 0 gusting 4 13.9
2019-Aug-26 01:46 019 0 gusting 3 13.9
2019-Aug-26 01:31 355 13.9
2019-Aug-26 01:16 321 13.9
2019-Aug-26 01:01 347 0 gusting 3 14.4
2019-Aug-26 00:46 016 14.4
2019-Aug-26 00:30 026 15.0
2019-Aug-26 00:15 026 15.0
2019-Aug-26 00:01 084 0 gusting 3 15.6
2019-Aug-25 23:45 005 0 gusting 3 15.6
2019-Aug-25 23:31 030 16.1
2019-Aug-25 23:16 355 16.7
2019-Aug-25 23:00 336 1 gusting 6 17.2
2019-Aug-25 22:45 042 1 gusting 3 17.2
2019-Aug-25 22:31 317 1 gusting 6 17.8
2019-Aug-25 22:16 080 2 gusting 6 18.3
2019-Aug-25 22:01 098 2 gusting 9 18.3
2019-Aug-25 21:45 080 0 gusting 7 18.9
2019-Aug-25 21:30 040 1 gusting 10 18.9
2019-Aug-25 21:16 065 3 gusting 11 18.9
2019-Aug-25 21:01 078 3 gusting 9 18.9
2019-Aug-25 20:45 242 4 gusting 11 18.9
2019-Aug-25 20:31 116 3 gusting 9 18.9
2019-Aug-25 20:16 064 5 gusting 12 19.4
2019-Aug-25 20:01 123 2 gusting 7 19.4
2019-Aug-25 19:46 116 3 gusting 13 18.9
2019-Aug-25 19:31 013 3 gusting 11 20.0
2019-Aug-25 19:16 360 5 gusting 11 20.0
2019-Aug-25 19:00 055 2 gusting 12 20.6
2019-Aug-25 18:45 102 4 gusting 12 20.6
2019-Aug-25 18:31 355 4 gusting 9 19.4
2019-Aug-25 18:15 335 6 gusting 13 20.0
2019-Aug-25 18:00 360 5 gusting 11 20.0
2019-Aug-25 17:46 107 6 gusting 11 20.6
2019-Aug-25 17:31 135 3 gusting 13 20.0
2019-Aug-25 17:15 080 4 gusting 11 20.6
2019-Aug-25 17:01 073 2 gusting 13 20.0
2019-Aug-25 16:45 037 3 gusting 13 19.4
2019-Aug-25 16:31 355 3 gusting 11 18.9
2019-Aug-25 16:16 020 4 gusting 10 18.3
2019-Aug-25 16:01 036 2 gusting 8 17.8
2019-Aug-25 15:45 065 1 gusting 9 17.2
2019-Aug-25 15:31 069 5 gusting 8 17.8
2019-Aug-25 15:16 071 2 gusting 4 17.8
2019-Aug-25 15:00 084 17.8
2019-Aug-25 14:45 072 4 gusting 9 18.9
2019-Aug-25 14:30 093 3 gusting 9 19.4
2019-Aug-25 14:15 065 2 gusting 9 19.4
2019-Aug-25 14:00 311 3 gusting 10 20.0
2019-Aug-25 13:45 052 4 gusting 8 20.0
2019-Aug-25 13:30 026 2 gusting 11 19.4
2019-Aug-25 13:15 037 3 gusting 12 19.4
2019-Aug-25 13:00 277 3 gusting 10 18.9
2019-Aug-25 12:45 301 2 gusting 8 18.9
2019-Aug-25 12:32 324 2 gusting 8 18.3
2019-Aug-25 12:17 038 3 gusting 6 17.8
2019-Aug-25 12:01 046 3 gusting 6 17.2
2019-Aug-25 11:46 020 3 gusting 6 16.1
2019-Aug-25 11:32 048 1 gusting 6 15.0
2019-Aug-25 11:16 360 1 gusting 5 14.4
2019-Aug-25 11:01 051 0 gusting 4 14.4
2019-Aug-25 10:46 020 0 gusting 4 13.9
2019-Aug-25 10:31 355 1 gusting 5 13.9
2019-Aug-25 10:17 061 1 gusting 3 13.9
2019-Aug-25 10:01 323 1 gusting 4 13.3
2019-Aug-25 09:46 011 0 gusting 3 13.3
2019-Aug-25 09:31 346 0 gusting 3 13.3
2019-Aug-25 09:16 342 12.8
2019-Aug-25 09:01 338 12.8
2019-Aug-25 08:46 337 11.7
2019-Aug-25 08:30 316 11.7
2019-Aug-25 08:15 316 11.7
2019-Aug-25 08:01 316 11.1
2019-Aug-25 07:45 316 11.7
2019-Aug-25 07:31 316 11.1
2019-Aug-25 07:15 316 11.7
2019-Aug-25 07:01 316 11.7
2019-Aug-25 06:45 316 11.7
2019-Aug-25 06:30 316 11.7
2019-Aug-25 06:15 316 11.7
2019-Aug-25 06:00 316 11.7
2019-Aug-25 05:45 316 11.7
2019-Aug-25 05:30 316 12.2
2019-Aug-25 05:15 316 12.2
2019-Aug-25 05:01 316 12.2
2019-Aug-25 04:45 316 12.8
2019-Aug-25 04:30 316 12.8
2019-Aug-25 04:15 316 13.3
2019-Aug-25 04:00 316 13.3
2019-Aug-25 03:45 316 13.9
2019-Aug-25 03:30 316 13.9
2019-Aug-25 03:15 316 14.4
2019-Aug-25 03:00 317 14.4
2019-Aug-25 02:45 350 15.0
2019-Aug-25 02:30 344 15.6
2019-Aug-25 02:16 344 16.1
2019-Aug-25 02:02 333 16.1
2019-Aug-25 01:46 038 0 gusting 4 16.1
2019-Aug-25 01:31 044 15.6
2019-Aug-25 01:16 042 16.1
2019-Aug-25 01:01 042 16.7
2019-Aug-25 00:47 042 17.2
2019-Aug-25 00:32 009 17.2
2019-Aug-25 00:17 115 17.8
2019-Aug-25 00:01 017 18.3
2019-Aug-24 23:47 071 18.9
2019-Aug-24 23:31 056 0 gusting 3 19.4
2019-Aug-24 23:17 349 19.4
2019-Aug-24 23:01 080 1 gusting 6 20.0
2019-Aug-24 22:47 085 2 gusting 6 20.6
2019-Aug-24 22:31 099 2 gusting 6 20.6
2019-Aug-24 22:16 072 1 gusting 7 20.6
2019-Aug-24 22:01 096 21.1
2019-Aug-24 21:46 061 2 gusting 6 21.7
2019-Aug-24 21:31 099 3 gusting 6 21.7
2019-Aug-24 21:16 030 2 gusting 6 22.2
2019-Aug-24 21:01 115 2 gusting 4 22.2
2019-Aug-24 20:45 102 1 gusting 4 22.8
2019-Aug-24 20:31 042 0 gusting 4 22.8
2019-Aug-24 20:16 051 1 gusting 6 22.8
2019-Aug-24 20:01 039 0 gusting 4 22.8
2019-Aug-24 19:46 066 1 gusting 4 23.3
2019-Aug-24 19:30 360 0 gusting 4 23.3
2019-Aug-24 19:15 019 0 gusting 4 23.3
2019-Aug-24 19:00 024 0 gusting 5 23.9
2019-Aug-24 18:45 042 0 gusting 4 23.3
2019-Aug-24 18:30 103 0 gusting 6 23.9
2019-Aug-24 18:16 040 1 gusting 5 23.3
2019-Aug-24 18:00 079 1 gusting 5 23.3
2019-Aug-24 17:45 106 1 gusting 6 23.3
2019-Aug-24 17:30 030 1 gusting 4 23.3
2019-Aug-24 17:15 049 22.8
2019-Aug-24 17:01 117 1 gusting 4 22.8
2019-Aug-24 16:45 028 22.8
2019-Aug-24 16:30 092 22.8
2019-Aug-24 16:15 348 23.3
2019-Aug-24 16:00 083 22.8
2019-Aug-24 15:45 306 1 gusting 5 22.8
2019-Aug-24 15:30 035 1 gusting 6 22.2
2019-Aug-24 15:15 045 0 gusting 3 22.2
2019-Aug-24 15:00 068 1 gusting 6 21.7
2019-Aug-24 14:45 058 1 gusting 6 21.1
2019-Aug-24 14:30 052 3 gusting 6 21.7
2019-Aug-24 14:15 065 1 gusting 6 21.7
2019-Aug-24 14:02 302 21.1
2019-Aug-24 13:46 021 1 gusting 6 20.6
2019-Aug-24 13:31 024 0 gusting 4 20.6
2019-Aug-24 13:16 026 2 gusting 5 19.4
2019-Aug-24 13:01 020 19.4
2019-Aug-24 12:46 015 0 gusting 6 18.3
2019-Aug-24 12:30 042 17.8
2019-Aug-24 12:15 044 0 gusting 5 16.7
2019-Aug-24 12:01 034 0 gusting 4 16.1
2019-Aug-24 11:45 046 0 gusting 2 15.6
2019-Aug-24 11:31 032 0 gusting 2 14.4
2019-Aug-24 11:15 044 13.3
2019-Aug-24 11:00 055 0 gusting 2 12.2
2019-Aug-24 10:45 020 11.1
2019-Aug-24 10:30 015 10.6
2019-Aug-24 10:15 015 10.6
2019-Aug-24 10:00 015 10.6
2019-Aug-24 09:45 015 10.6
2019-Aug-24 09:30 015 11.1
2019-Aug-24 09:15 016 11.1
2019-Aug-24 09:00 016 11.1